Location: Newark
(39.0622°N, 106.5590°E)
Time: 15:27:20
(UTC+00:00)

UWE-3 - Pass Details

Date: 25 February 2020
Orbit: 585 x 682 km, 97.6° (Epoch: 30 March)

Event Time Altitude Azimuth Distance (km) Brightness Sun altitude
Rises 22:53:16 0° 4° (N) 3,045 ? -8.3°
Reaches altitude 10° 22:55:36 10° 358° (N) 2,131 ? -7.8°
Maximum altitude 22:59:59 42° 288° (WNW) 973 ? -7.0°
Drops below altitude 10° 23:04:21 10° 218° (SW) 2,113 ? -6.1°
Sets 23:06:40 0° 211° (SSW) 3,017 ? -5.7°
